Weather in Bibikovo

Russia / Oryol Oblast     53°10′49″N   37°13′46″E
temp.,
°C
wind,
m/s
gust,
m/s
humid.,
%
clouds,
%
prec.,
mm/h
press.,
hPa
HPBL,
m
8 may, sat
sat800:00+9sse51270100 0.0 1013297
03:00+8s51381100 0.4 1012479
06:00+8sse81693100 3.3 1009682
09:00+9sse101893100 6.1 1007767
12:00+9sse91694100 2.2 1006768
15:00+9s71396100 9.2 1004882
18:00+10s61396100 4.4 1002942
21:00+8wsw5109691 4.8 1004419
9 may, sun
sun900:00+7w6896100 0.1 1004694
03:00+3wnw81497100 0.3 1008749
06:00+3wnw91597100 1.5 1011779
09:00+6nw8117776 1.6 10131137
12:00+6nw8107599 0.2 10161366
15:00+7nw81070100 0.3 10191315
18:00+8nw510696 0.0 10201481
21:00+5wnw37800 0.0 1023117
10 may, mon
mon1000:00+3nw410820 0.0 1024184
03:00+3nnw49810 0.0 1026162
06:00+3nnw49770 0.0 1028197
09:00+9nne58603 0.0 1029604
12:00+12nne79475 0.0 10281451
15:00+13nne810465 0.0 10271424
18:00+12nne610610 0.0 10271182
21:00+7nne513750 0.0 1028292
11 may, tue
tue1100:00+7ne514730 0.0 1028348
03:00+6ne615715 0.0 1027393
06:00+6ne716745 0.0 1027429
09:00+11ne8146693 0.0 1026599
12:00+14ene81168100 0.0 1026774
15:00+16ene8107199 0.0 10251162
18:00+14ene5118139 0.0 1025663
21:00+13ene51289100 0.1 1024455
12 may, wed
wed1200:00+12ese4798100 4.6 1024409
03:00+10e1297100 4.9 102372
06:00+9s2397100 2.2 1023187
09:00+9ese1292100 4.3 1023144
12:00+13e34760 0.3 1023667
15:00+16ese466474 0.3 10211488
18:00+13ene4589100 0.1 1021289
21:00+12ene269791 0.6 1019219